Location: El Chorro
(10.0985°N, 67.3542°W)
Time: 17:52:56
(UTC+00:00)

Cosmos 1536 Rocket - Pass Details

Date: 15 November 2025
Orbit: 599 x 625 km, 82.5° (Epoch: 06 December)

Event Time Altitude Azimuth Distance (km) Brightness Sun altitude
Rises 22:59:22 0° 10° (N) 2,878 6.7 -13.8°
Reaches altitude 10° 23:01:45 10° 19° (NNE) 1,969 5.8 -14.4°
Maximum altitude 23:05:43 34° 85° (E) 1,009 4.1 -15.3°
Drops below altitude 10° 23:09:39 10° 150° (SSE) 1,956 6.0 -16.3°
Sets 23:12:00 0° 159° (SSE) 2,855 6.9 -16.8°
